TimePST,TemperatureF,Dew PointF,Humidity,Sea Level PressureIn,VisibilityMPH,Wind Direction,Wind SpeedMPH,Gust SpeedMPH,PrecipitationIn,Events,Conditions,WindDirDegrees,DateUTC
12:58 AM,59.2,50.5,73,30.03,10.0,NNE,2.3,-,N/A,,Clear,30,2012-11-06 08:58:00
1:58 AM,57.4,51.3,80,30.03,10.0,Calm,Calm,-,N/A,,Clear,0,2012-11-06 09:58:00
2:58 AM,55.4,49.1,79,30.03,10.0,Calm,Calm,-,N/A,,Clear,0,2012-11-06 10:58:00
3:58 AM,54.1,48.9,82,30.03,10.0,NNE,2.3,-,N/A,,Clear,20,2012-11-06 11:58:00
4:58 AM,53.2,47.3,80,30.05,10.0,NNE,3.5,-,N/A,,Clear,20,2012-11-06 12:58:00
5:58 AM,54.1,47.1,77,30.06,10.0,NNE,2.3,-,N/A,,Clear,30,2012-11-06 13:58:00
6:58 AM,53.2,47.3,80,30.08,10.0,NNE,2.3,-,N/A,,Clear,30,2012-11-06 14:58:00
7:58 AM,63.9,45.0,50,30.10,10.0,Calm,Calm,-,N/A,,Clear,20,2012-11-06 15:58:00
8:58 AM,70.0,45.5,41,30.09,10.0,East,2.3,-,N/A,,Clear,80,2012-11-06 16:58:00
9:58 AM,73.8,43.3,34,30.09,10.0,Calm,Calm,-,N/A,,Clear,0,2012-11-06 17:58:00
10:58 AM,77.9,43.7,30,30.07,10.0,Calm,Calm,-,N/A,,Clear,0,2012-11-06 18:58:00
11:58 AM,74.8,63.5,68,30.05,10.0,SW,10.4,-,N/A,,Clear,220,2012-11-06 19:58:00
12:58 PM,73.8,62.4,68,30.03,10.0,SSW,8.1,-,N/A,,Clear,200,2012-11-06 20:58:00
1:58 PM,72.7,65.1,77,30.01,10.0,SSW,10.4,-,N/A,,Clear,200,2012-11-06 21:58:00
2:58 PM,70.2,65.3,85,30.01,10.0,South,8.1,-,N/A,,Clear,190,2012-11-06 22:58:00
3:58 PM,67.8,65.3,92,30.01,10.0,SSW,6.9,-,N/A,,Clear,200,2012-11-06 23:58:00
4:58 PM,65.1,65.1,100,30.01,10.0,South,4.6,-,N/A,,Clear,170,2012-11-07 00:58:00
5:58 PM,64.6,64.6,100,30.02,10.0,South,5.8,-,N/A,,Clear,170,2012-11-07 01:58:00
6:58 PM,63.9,63.9,100,30.04,7.0,Calm,Calm,-,N/A,,Scattered Clouds,0,2012-11-07 02:58:00
7:10 PM,64.4,64.4,100,30.03,7.0,Calm,Calm,-,N/A,,Overcast,0,2012-11-07 03:10:00
7:40 PM,62.6,62.6,100,30.03,7.0,Calm,Calm,-,N/A,,Overcast,0,2012-11-07 03:40:00
7:55 PM,63.0,63.0,100,30.05,7.0,SSE,3.5,-,N/A,,Overcast,150,2012-11-07 03:55:00
8:58 PM,62.6,62.6,100,30.06,7.0,South,4.6,-,N/A,,Overcast,190,2012-11-07 04:58:00
9:55 PM,62.6,62.6,100,30.07,7.0,Calm,Calm,-,N/A,,Overcast,0,2012-11-07 05:55:00
11:58 PM,63.0,63.0,100,30.06,10.0,WNW,3.5,-,N/A,,Overcast,300,2012-11-07 07:58:00